NWS Melbourne » East Central Florida Hourly Weather Roundup

 

ASUS42 KMLB 060711
RWRMLB
HOURLY WEATHER ROUNDUP AROUND FLORIDA
NATIONAL WEATHER SERVICE OFFICE MELBOURNE FL
200 AM EST SAT FEB 06 2016
  
CITY           SKY/WX    TMP DP  RH WIND       PRES   REMARKS
MELBOURNE      CLEAR     60  52  74 NE12      30.15F                  
FORT PIERCE    CLOUDY    56  53  90 W3        30.14F                  
ORLANDO INTL   PTCLDY    49  43  80 N8        30.20F                  
DAYTONA BEACH  PTCLDY    58  50  75 VRB5      30.21F                  
VERO BEACH     MOCLDY    66  52  60 E10       30.14F                  
$$
...ELSEWHERE ACROSS CENTRAL FLORIDA...
  
CITY           SKY/WX    TMP DP  RH WIND       PRES   REMARKS
PATRICK AFB    PTCLDY    65  52  63 E17       30.16F                  
KSC            CLEAR     60  51  71 E8        30.17F                  
CAPE CANAVERAL CLEAR     63  52  66 NE8       30.16F                  
ORLANDO EXEC   CLEAR     50  43  77 N7        30.20F                  
LEESBURG       CLEAR     47  39  74 N9        30.23F                  
THE VILLAGES     N/A     48  41  76 N8        30.14F                  
SANFORD        PTCLDY    50  44  80 N12       30.21S                  
DELAND           N/A     48  43  81 NW7       30.23F                  
WINTER HAVEN   PTCLDY    48  43  82 N13       30.21F                  
OKEECHOBEE     MOCLDY    50  46  87 N3        30.15F                  
TAMPA          PTCLDY    48  37  65 N9G17     30.21F                  
$$
...NORTHERN FLORIDA...
  
CITY           SKY/WX    TMP DP  RH WIND       PRES   REMARKS
PALM COAST     CLOUDY    55  49  81 N8        30.22F                  
ST AUGUSTINE   PTCLDY    53  44  71 N21G26    30.25F                  
OCALA          CLEAR     46  34  61 N6        30.24F                  
GAINESVILLE    CLOUDY    46  35  65 N9        30.26F                  
JACKSONVILLE   PTCLDY    43  37  79 N8        30.27F WCI  38          
TALLAHASSEE    PTCLDY    32  27  81 NW3       30.33S                  
$$
...ALONG THE SOUTHEAST COAST TO THE KEYS...
  
CITY           SKY/WX    TMP DP  RH WIND       PRES   REMARKS
STUART           N/A     70  54  56 E9        30.15F                  
WEST PALM BCH  MOCLDY    69  57  65 E10       30.13F                  
MIAMI          MOCLDY    60  55  83 VRB3      30.13F                  
KEY WEST       CLOUDY    65  60  84 N14       30.10F                  
$$
...MARINE REPORTS...
  
STATION/POSITION TIME  TEMP    WIND        PRES    WAVE   SWELL
                       AIR SEA DIR/SP/G            HT/PER HT/PER
                 (UTC) (F)     (DEG/KT/KT) (MB)    (FT/S) (FT/S)
ST AUGUSTINE FP  0700   55 59   20/ 26/ 28 1024.3F
20NM E CAPE CANA 0650   67 74   70/ 14/ 17 1021.4F   5/ 8   3/ 8
120 E NEW SMYRNA 0650   66 73              1022.2F   7/ 7   5/ 7
TRIDENT PIER     0642   62 65   40/  8/ 12 1021.3F
SEBASTIAN INLET  0700   67      80/ 13     1021.0
4NM E PORT CANAV 0640      65                N/A     3/ 5
6NM NE FPR INLET 0651      74                N/A     5/ 6   2/11
SETTLEMENT PT GB 0700   68      50/ 15/ 17 1020.8F
$$
  
 

 

Link to: East Central Florida Hourly Weather Roundup


USA.gov is the U.S. government's official web portal to all federal, state and local government web resources and services.